QPF
0.00 0.00 0.00 0.00 0.00 0.00 0.00 0.00 0.00 0.00 0.00 0.00 0.00 0.00 0.00 0.00 0.00 0.00 0.00 0.00 0.00 0.00 0.01 0.02 0.02 0.02 0.01 0.01 0.01 0.02 0.02 0.04 0.04 0.02 0.02 0.06 0.11 0.12 0.10 0.07 0.05 0.03 0.02
0.00 0.00 0.00 0.00 0.00 0.00 0.00 0.00 0.00 0.00 0.00 0.00 0.00 0.00 0.00 0.00 0.00 0.00 0.00 0.00 0.01 0.02 0.02 0.03 0.03 0.02 0.01 0.01 0.01 0.02 0.02 0.03 0.04 0.02 0.01 0.03 0.06 0.09 0.10 0.09 0.06 0.03 0.02
0.00 0.00 0.00 0.00 0.00 0.00 0.00 0.00 0.00 0.00 0.00 0.00 0.00 0.00 0.00 0.00 0.00 0.00 0.00 0.00 0.01 0.02 0.03 0.03 0.02 0.02 0.02 0.01 0.02 0.03 0.02 0.02 0.02 0.02 0.01 0.01 0.04 0.05 0.06 0.07 0.07 0.04 0.02
0.00 0.00 0.00 0.00 0.00 0.00 0.00 0.00 0.00 0.00 0.00 0.00 0.00 0.00 0.00 0.00 0.00 0.00 0.01 0.02 0.01 0.01 0.01 0.02 0.02 0.03 0.03 0.04 0.05 0.05 0.03 0.02 0.01 0.02 0.01 0.01 0.02 0.04 0.04 0.05 0.06 0.05 0.03
0.00 0.00 0.00 0.00 0.00 0.00 0.00 0.00 0.00 0.00 0.00 0.00 0.00 0.00 0.00 0.01 0.01 0.04 0.07 0.06 0.03 0.01 0.01 0.01 0.02 0.04 0.06 0.07 0.09 0.10 0.06 0.03 0.02 0.02 0.02 0.02 0.03 0.03 0.04 0.04 0.05 0.05 0.04
0.00 0.00 0.00 0.00 0.00 0.00 0.00 0.00 0.00 0.00 0.00 0.00 0.00 0.00 0.00 0.01 0.06 0.13 0.15 0.09 0.05 0.03 0.03 0.02 0.01 0.02 0.03 0.04 0.07 0.08 0.07 0.05 0.04 0.03 0.03 0.04 0.04 0.03 0.03 0.03 0.04 0.05 0.05
0.00 0.00 0.00 0.00 0.00 0.00 0.00 0.00 0.00 0.00 0.00 0.00 0.00 0.00 0.00 0.02 0.10 0.17 0.15 0.10 0.06 0.05 0.04 0.02 0.02 0.02 0.02 0.01 0.02 0.02 0.02 0.03 0.04 0.04 0.05 0.05 0.04 0.03 0.03 0.03 0.04 0.05 0.05
0.00 0.00 0.00 0.00 0.00 0.00 0.00 0.00 0.00 0.00 0.00 0.00 0.00 0.00 0.00 0.02 0.11 0.19 0.13 0.07 0.07 0.06 0.04 0.04 0.06 0.06 0.05 0.03 0.02 0.01 0.01 0.02 0.03 0.04 0.04 0.04 0.04 0.03 0.03 0.04 0.05 0.06 0.07
0.00 0.00 0.00 0.00 0.00 0.00 0.00 0.00 0.00 0.00 0.00 0.00 0.00 0.00 0.00 0.01 0.10 0.20 0.13 0.04 0.05 0.04 0.06 0.10 0.13 0.10 0.07 0.03 0.01 0.01 0.01 0.02 0.02 0.02 0.03 0.03 0.02 0.03 0.03 0.04 0.05 0.07 0.11
0.00 0.00 0.00 0.00 0.00 0.00 0.00 0.00 0.00 0.00 0.00 0.00 0.00 0.00 0.00 0.01 0.06 0.16 0.13 0.03 0.02 0.02 0.03 0.09 0.16 0.13 0.07 0.01 0.00 0.01 0.01 0.01 0.01 0.01 0.01 0.01 0.01 0.02 0.04 0.05 0.07 0.09 0.14
0.00 0.00 0.00 0.00 0.00 0.00 0.00 0.00 0.00 0.00 0.00 0.00 0.00 0.00 0.00 0.01 0.02 0.08 0.12 0.05 0.01 0.02 0.05 0.10 0.14 0.09 0.04 0.01 0.01 0.01 0.01 0.01 0.01 0.01 0.01 0.01 0.01 0.02 0.04 0.06 0.09 0.12 0.15
0.00 0.00 0.00 0.00 0.00 0.00 0.00 0.00 0.00 0.00 0.00 0.00 0.00 0.00 0.00 0.00 0.01 0.03 0.05 0.06 0.03 0.02 0.05 0.05 0.05 0.03 0.01 0.01 0.00 0.00 0.00 0.00 0.00 0.00 0.01 0.01 0.02 0.03 0.05 0.08 0.10 0.13 0.16
0.00 0.00 0.00 0.00 0.00 0.00 0.00 0.00 0.00 0.00 0.01 0.01 0.00 0.00 0.00 0.00 0.00 0.01 0.01 0.02 0.02 0.01 0.02 0.03 0.01 0.00 0.00 0.00 0.00 0.00 0.00 0.00 0.00 0.00 0.01 0.02 0.03 0.04 0.06 0.08 0.10 0.13 0.16
0.00 0.00 0.00 0.00 0.00 0.00 0.00 0.00 0.00 0.00 0.02 0.01 0.01 0.01 0.00 0.00 0.01 0.01 0.00 0.01 0.01 0.00 0.00 0.00 0.00 0.00 0.00 0.00 0.00 0.00 0.00 0.00 0.00 0.00 0.01 0.01 0.02 0.03 0.05 0.08 0.11 0.15 0.17
0.00 0.00 0.00 0.00 0.00 0.00 0.00 0.00 0.00 0.00 0.02 0.02 0.02 0.02 0.01 0.02 0.03 0.02 0.01 0.01 0.01 0.00 0.00 0.00 0.00 0.00 0.00 0.00 0.00 0.00 0.00 0.00 0.00 0.00 0.00 0.01 0.01 0.03 0.04 0.07 0.11 0.14 0.18
0.00 0.00 0.00 0.00 0.00 0.00 0.00 0.00 0.00 0.00 0.01 0.01 0.01 0.02 0.02 0.02 0.02 0.01 0.01 0.01 0.01 0.00 0.00 0.00 0.00 0.00 0.00 0.00 0.00 0.00 0.00 0.00 0.00 0.00 0.00 0.01 0.01 0.02 0.04 0.05 0.09 0.12 0.15
0.00 0.00 0.00 0.00 0.00 0.00 0.00 0.00 0.00 0.00 0.00 0.00 0.00 0.01 0.01 0.01 0.01 0.01 0.00 0.00 0.00 0.00 0.00 0.00 0.00 0.00 0.00 0.00 0.00 0.00 0.00 0.00 0.00 0.00 0.00 0.00 0.01 0.02 0.03 0.04 0.06 0.10 0.13
0.00 0.00 0.00 0.00 0.00 0.00 0.00 0.00 0.00 0.00 0.00 0.00 0.00 0.00 0.00 0.01 0.00 0.00 0.00 0.00 0.00 0.00 0.00 0.00 0.00 0.00 0.00 0.00 0.00 0.00 0.00 0.00 0.00 0.00 0.00 0.00 0.00 0.01 0.02 0.02 0.04 0.06 0.09
0.00 0.00 0.00 0.00 0.00 0.00 0.00 0.00 0.00 0.00 0.00 0.00 0.00 0.00 0.00 0.00 0.00 0.00 0.00 0.00 0.00 0.00 0.00 0.00 0.00 0.00 0.00 0.00 0.00 0.00 0.00 0.00 0.00 0.00 0.00 0.00 0.00 0.00 0.01 0.01 0.02 0.03 0.05
0.00 0.00 0.00 0.00 0.00 0.00 0.00 0.00 0.00 0.00 0.00 0.01 0.01 0.01 0.02 0.02 0.01 0.00 0.00 0.00 0.00 0.00 0.00 0.00 0.00 0.00 0.00 0.00 0.00 0.00 0.00 0.00 0.00 0.00 0.00 0.00 0.00 0.00 0.00 0.01 0.01 0.01 0.02
0.00 0.00 0.00 0.00 0.00 0.00 0.00 0.00 0.00 0.01 0.01 0.01 0.01 0.01 0.04 0.04 0.02 0.01 0.01 0.01 0.01 0.01 0.00 0.00 0.00 0.00 0.00 0.00 0.00 0.00 0.00 0.00 0.00 0.00 0.00 0.00 0.00 0.00 0.00 0.00 0.00 0.01 0.01
0.00 0.00 0.00 0.00 0.00 0.00 0.00 0.00 0.00 0.00 0.01 0.01 0.01 0.00 0.01 0.02 0.02 0.02 0.02 0.02 0.02 0.02 0.01 0.01 0.00 0.00 0.00 0.00 0.00 0.00 0.00 0.00 0.00 0.00 0.00 0.00 0.00 0.00 0.00 0.00 0.00 0.00 0.00
0.00 0.00 0.00 0.00 0.00 0.00 0.00 0.00 0.00 0.00 0.01 0.01 0.01 0.01 0.02 0.02 0.03 0.04 0.04 0.04 0.04 0.03 0.03 0.02 0.01 0.01 0.00 0.00 0.00 0.00 0.00 0.00 0.00 0.00 0.00 0.00 0.00 0.00 0.00 0.00 0.00 0.00 0.00
0.00 0.00 0.00 0.00 0.00 0.00 0.00 0.00 0.00 0.00 0.01 0.01 0.01 0.02 0.02 0.03 0.04 0.04 0.05 0.05 0.05 0.05 0.05 0.04 0.03 0.01 0.01 0.00 0.00 0.00 0.00 0.00 0.00 0.00 0.00 0.00 0.00 0.00 0.00 0.00 0.00 0.00 0.00
0.00 0.00 0.00 0.00 0.00 0.00 0.00 0.00 0.00 0.00 0.00 0.01 0.01 0.02 0.02 0.03 0.03 0.04 0.04 0.06 0.07 0.07 0.06 0.06 0.05 0.03 0.02 0.01 0.00 0.00 0.00 0.00 0.00 0.00 0.00 0.00 0.00 0.00 0.00 0.00 0.00 0.00 0.00
0.00 0.00 0.00 0.00 0.00 0.00 0.00 0.00 0.00 0.01 0.01 0.01 0.01 0.02 0.02 0.03 0.03 0.04 0.06 0.08 0.10 0.09 0.07 0.07 0.07 0.05 0.03 0.02 0.01 0.00 0.00 0.00 0.00 0.00 0.00 0.00 0.00 0.00 0.00 0.00 0.00 0.00 0.00
MSLP
1035.29 1034.80 1034.25 1033.63 1032.94 1032.20 1031.43 1030.64 1029.88 1029.13 1028.42 1027.71 1026.99 1026.25 1025.46 1024.64 1023.78 1022.92 1022.08 1021.29 1020.57 1019.91 1019.32 1018.76 1018.19 1017.58 1016.91 1016.15 1015.33 1014.47 1013.60 1012.78 1012.05 1011.42 1010.90 1010.47 1010.11 1009.77 1009.42 1009.03 1008.61 1008.16 1007.71
1035.27 1034.72 1034.10 1033.44 1032.72 1031.96 1031.20 1030.44 1029.70 1028.97 1028.25 1027.52 1026.76 1025.95 1025.09 1024.18 1023.25 1022.32 1021.44 1020.62 1019.89 1019.25 1018.67 1018.13 1017.58 1017.00 1016.35 1015.64 1014.87 1014.08 1013.31 1012.60 1011.98 1011.47 1011.06 1010.73 1010.43 1010.12 1009.77 1009.35 1008.87 1008.35 1007.82
1035.24 1034.62 1033.96 1033.24 1032.50 1031.74 1030.98 1030.24 1029.51 1028.79 1028.06 1027.30 1026.48 1025.60 1024.65 1023.66 1022.65 1021.66 1020.74 1019.90 1019.17 1018.55 1018.00 1017.49 1016.99 1016.45 1015.86 1015.21 1014.51 1013.81 1013.14 1012.54 1012.04 1011.63 1011.31 1011.05 1010.79 1010.49 1010.12 1009.65 1009.10 1008.50 1007.88
1035.22 1034.56 1033.85 1033.10 1032.34 1031.58 1030.83 1030.10 1029.38 1028.66 1027.91 1027.10 1026.22 1025.26 1024.22 1023.15 1022.06 1021.02 1020.05 1019.21 1018.49 1017.89 1017.39 1016.94 1016.50 1016.03 1015.51 1014.94 1014.33 1013.72 1013.15 1012.65 1012.24 1011.91 1011.66 1011.43 1011.18 1010.86 1010.45 1009.93 1009.31 1008.63 1007.94
1035.23 1034.54 1033.81 1033.04 1032.27 1031.51 1030.78 1030.06 1029.35 1028.62 1027.84 1026.99 1026.04 1025.00 1023.88 1022.72 1021.56 1020.47 1019.48 1018.63 1017.93 1017.38 1016.93 1016.54 1016.17 1015.78 1015.35 1014.86 1014.35 1013.83 1013.35 1012.93 1012.58 1012.31 1012.09 1011.87 1011.61 1011.26 1010.79 1010.21 1009.52 1008.77 1008.01
1035.30 1034.60 1033.85 1033.08 1032.31 1031.56 1030.84 1030.14 1029.44 1028.70 1027.90 1027.01 1026.00 1024.88 1023.69 1022.46 1021.24 1020.11 1019.10 1018.25 1017.58 1017.07 1016.68 1016.36 1016.07 1015.75 1015.40 1015.00 1014.56 1014.12 1013.71 1013.34 1013.05 1012.80 1012.59 1012.36 1012.07 1011.67 1011.15 1010.51 1009.76 1008.95 1008.15
1035.40 1034.70 1033.95 1033.19 1032.43 1031.71 1031.01 1030.33 1029.64 1028.91 1028.10 1027.18 1026.13 1024.96 1023.71 1022.42 1021.17 1020.01 1018.99 1018.15 1017.51 1017.03 1016.69 1016.43 1016.20 1015.95 1015.66 1015.33 1014.95 1014.56 1014.20 1013.87 1013.59 1013.35 1013.13 1012.87 1012.55 1012.11 1011.54 1010.84 1010.04 1009.20 1008.36
1035.51 1034.82 1034.08 1033.33 1032.60 1031.90 1031.24 1030.59 1029.93 1029.22 1028.41 1027.48 1026.42 1025.22 1023.95 1022.64 1021.37 1020.20 1019.19 1018.37 1017.74 1017.30 1016.99 1016.77 1016.58 1016.37 1016.13 1015.83 1015.48 1015.13 1014.78 1014.46 1014.18 1013.94 1013.69 1013.41 1013.04 1012.56 1011.95 1011.21 1010.38 1009.51 1008.66
1035.58 1034.90 1034.17 1033.44 1032.74 1032.08 1031.46 1030.86 1030.24 1029.56 1028.78 1027.87 1026.82 1025.64 1024.37 1023.08 1021.83 1020.68 1019.69 1018.89 1018.30 1017.88 1017.59 1017.39 1017.21 1017.01 1016.77 1016.48 1016.14 1015.78 1015.43 1015.10 1014.81 1014.54 1014.26 1013.94 1013.54 1013.02 1012.38 1011.61 1010.75 1009.86 1009.00
1035.58 1034.90 1034.19 1033.48 1032.81 1032.19 1031.62 1031.06 1030.49 1029.86 1029.13 1028.26 1027.25 1026.12 1024.91 1023.67 1022.47 1021.37 1020.43 1019.68 1019.12 1018.72 1018.44 1018.24 1018.05 1017.84 1017.58 1017.26 1016.90 1016.52 1016.14 1015.78 1015.46 1015.15 1014.84 1014.48 1014.04 1013.49 1012.81 1012.02 1011.14 1010.23 1009.38
1035.48 1034.80 1034.10 1033.42 1032.78 1032.20 1031.67 1031.16 1030.64 1030.06 1029.38 1028.58 1027.64 1026.59 1025.46 1024.31 1023.20 1022.19 1021.33 1020.64 1020.12 1019.75 1019.49 1019.28 1019.07 1018.83 1018.53 1018.17 1017.77 1017.34 1016.91 1016.52 1016.15 1015.80 1015.44 1015.04 1014.56 1013.97 1013.27 1012.44 1011.54 1010.62 1009.76
1035.29 1034.61 1033.92 1033.26 1032.64 1032.10 1031.60 1031.13 1030.65 1030.12 1029.50 1028.77 1027.91 1026.96 1025.94 1024.90 1023.91 1023.02 1022.26 1021.66 1021.21 1020.88 1020.63 1020.42 1020.19 1019.92 1019.58 1019.17 1018.71 1018.23 1017.76 1017.31 1016.89 1016.49 1016.09 1015.64 1015.12 1014.50 1013.75 1012.91 1011.98 1011.05 1010.17
1035.03 1034.35 1033.67 1033.03 1032.44 1031.91 1031.44 1030.99 1030.54 1030.04 1029.47 1028.80 1028.03 1027.17 1026.27 1025.36 1024.51 1023.74 1023.11 1022.62 1022.25 1021.98 1021.77 1021.57 1021.33 1021.03 1020.66 1020.21 1019.71 1019.18 1018.66 1018.16 1017.70 1017.25 1016.80 1016.31 1015.75 1015.09 1014.32 1013.44 1012.51 1011.55 1010.66
1034.74 1034.07 1033.41 1032.79 1032.21 1031.69 1031.22 1030.78 1030.34 1029.85 1029.30 1028.67 1027.96 1027.20 1026.40 1025.63 1024.91 1024.29 1023.79 1023.41 1023.14 1022.95 1022.78 1022.61 1022.39 1022.09 1021.70 1021.23 1020.71 1020.16 1019.61 1019.07 1018.57 1018.09 1017.60 1017.07 1016.48 1015.79 1015.00 1014.11 1013.16 1012.20 1011.31
1034.46 1033.82 1033.19 1032.58 1032.01 1031.50 1031.02 1030.56 1030.09 1029.59 1029.04 1028.42 1027.75 1027.05 1026.35 1025.68 1025.09 1024.59 1024.21 1023.95 1023.78 1023.67 1023.57 1023.45 1023.26 1022.98 1022.62 1022.16 1021.65 1021.10 1020.55 1020.01 1019.49 1018.99 1018.48 1017.94 1017.33 1016.63 1015.83 1014.94 1014.00 1013.06 1012.18
1034.24 1033.63 1033.02 1032.44 1031.88 1031.36 1030.86 1030.36 1029.85 1029.31 1028.73 1028.10 1027.44 1026.77 1026.12 1025.53 1025.03 1024.63 1024.36 1024.19 1024.11 1024.07 1024.04 1023.98 1023.85 1023.63 1023.31 1022.91 1022.44 1021.94 1021.42 1020.91 1020.42 1019.93 1019.43 1018.89 1018.29 1017.60 1016.83 1015.97 1015.06 1014.15 1013.30
1034.07 1033.50 1032.93 1032.37 1031.83 1031.30 1030.77 1030.23 1029.67 1029.07 1028.43 1027.77 1027.09 1026.42 1025.79 1025.24 1024.79 1024.45 1024.24 1024.14 1024.11 1024.14 1024.17 1024.17 1024.11 1023.96 1023.73 1023.41 1023.03 1022.61 1022.17 1021.73 1021.29 1020.85 1020.39 1019.88 1019.32 1018.67 1017.95 1017.14 1016.30 1015.45 1014.66
1033.94 1033.42 1032.90 1032.37 1031.84 1031.31 1030.75 1030.17 1029.55 1028.89 1028.19 1027.48 1026.75 1026.06 1025.42 1024.86 1024.42 1024.10 1023.91 1023.83 1023.83 1023.89 1023.96 1024.02 1024.02 1023.96 1023.82 1023.61 1023.35 1023.04 1022.72 1022.38 1022.03 1021.67 1021.28 1020.85 1020.35 1019.77 1019.12 1018.40 1017.64 1016.88 1016.17
1033.83 1033.37 1032.89 1032.40 1031.89 1031.35 1030.78 1030.16 1029.50 1028.79 1028.03 1027.26 1026.49 1025.75 1025.07 1024.49 1024.02 1023.67 1023.44 1023.34 1023.32 1023.38 1023.46 1023.54 1023.60 1023.62 1023.58 1023.50 1023.37 1023.21 1023.02 1022.82 1022.59 1022.34 1022.05 1021.70 1021.28 1020.79 1020.23 1019.61 1018.96 1018.31 1017.70
1033.71 1033.30 1032.87 1032.42 1031.94 1031.41 1030.84 1030.20 1029.51 1028.76 1027.97 1027.15 1026.33 1025.55 1024.82 1024.17 1023.64 1023.22 1022.93 1022.75 1022.67 1022.68 1022.73 1022.81 1022.90 1022.98 1023.05 1023.08 1023.10 1023.09 1023.06 1023.00 1022.91 1022.78 1022.60 1022.35 1022.03 1021.64 1021.19 1020.68 1020.15 1019.62 1019.13
1033.57 1033.21 1032.83 1032.42 1031.97 1031.47 1030.90 1030.27 1029.57 1028.81 1028.00 1027.15 1026.30 1025.47 1024.68 1023.97 1023.35 1022.83 1022.43 1022.15 1021.97 1021.88 1021.86 1021.91 1022.00 1022.12 1022.25 1022.40 1022.55 1022.69 1022.81 1022.90 1022.95 1022.95 1022.89 1022.75 1022.54 1022.25 1021.90 1021.51 1021.09 1020.69 1020.32
1033.40 1033.09 1032.75 1032.39 1031.98 1031.51 1030.97 1030.36 1029.68 1028.93 1028.12 1027.27 1026.39 1025.53 1024.69 1023.90 1023.18 1022.55 1022.02 1021.59 1021.27 1021.06 1020.94 1020.91 1020.97 1021.09 1021.27 1021.51 1021.76 1022.03 1022.30 1022.53 1022.72 1022.85 1022.91 1022.87 1022.76 1022.57 1022.33 1022.04 1021.75 1021.47 1021.22
1033.21 1032.95 1032.66 1032.34 1031.97 1031.54 1031.04 1030.47 1029.82 1029.10 1028.31 1027.48 1026.60 1025.71 1024.83 1023.97 1023.15 1022.39 1021.71 1021.13 1020.64 1020.27 1020.02 1019.89 1019.88 1019.98 1020.17 1020.46 1020.80 1021.18 1021.56 1021.93 1022.25 1022.50 1022.66 1022.74 1022.72 1022.63 1022.48 1022.30 1022.11 1021.95 1021.82
1033.03 1032.81 1032.57 1032.29 1031.97 1031.58 1031.12 1030.60 1029.99 1029.31 1028.56 1027.75 1026.89 1025.99 1025.07 1024.14 1023.23 1022.34 1021.52 1020.76 1020.11 1019.57 1019.17 1018.91 1018.80 1018.84 1019.03 1019.33 1019.73 1020.19 1020.68 1021.15 1021.59 1021.95 1022.22 1022.40 1022.48 1022.48 1022.43 1022.35 1022.26 1022.20 1022.19
1032.88 1032.70 1032.51 1032.27 1031.98 1031.64 1031.23 1030.74 1030.18 1029.54 1028.83 1028.05 1027.21 1026.31 1025.36 1024.37 1023.37 1022.38 1021.41 1020.50 1019.67 1018.97 1018.40 1018.00 1017.79 1017.75 1017.89 1018.19 1018.62 1019.14 1019.70 1020.27 1020.81 1021.27 1021.65 1021.93 1022.11 1022.21 1022.26 1022.27 1022.28 1022.32 1022.42
1032.75 1032.63 1032.47 1032.28 1032.03 1031.72 1031.34 1030.89 1030.37 1029.77 1029.09 1028.34 1027.52 1026.61 1025.64 1024.62 1023.54 1022.45 1021.36 1020.30 1019.32 1018.46 1017.74 1017.21 1016.87 1016.74 1016.82 1017.10 1017.53 1018.08 1018.70 1019.35 1019.97 1020.54 1021.02 1021.41 1021.69 1021.90 1022.04 1022.15 1022.26 1022.39 1022.57
Thickness
5250 5240 5231 5222 5214 5207 5199 5193 5187 5181 5176 5171 5167 5164 5162 5163 5165 5169 5174 5181 5188 5196 5204 5214 5225 5236 5248 5261 5275 5289 5304 5319 5336 5353 5369 5388 5407 5427 5445 5465 5485 5503 5521
5245 5235 5226 5217 5209 5201 5194 5187 5179 5172 5164 5157 5150 5145 5143 5143 5146 5151 5158 5167 5176 5185 5195 5204 5215 5226 5237 5250 5263 5277 5292 5307 5322 5338 5353 5372 5391 5410 5429 5450 5469 5488 5506
5241 5231 5222 5214 5205 5197 5189 5180 5171 5162 5153 5143 5134 5128 5125 5124 5127 5133 5142 5153 5164 5175 5185 5195 5205 5216 5228 5240 5253 5267 5282 5297 5311 5324 5339 5356 5375 5395 5414 5434 5454 5473 5491
5236 5227 5218 5210 5201 5192 5183 5173 5163 5152 5141 5130 5121 5113 5110 5111 5115 5121 5129 5140 5152 5165 5176 5186 5197 5207 5219 5231 5244 5258 5272 5286 5300 5313 5326 5342 5359 5378 5396 5416 5437 5455 5474
5232 5223 5215 5206 5197 5188 5178 5168 5156 5144 5131 5119 5110 5104 5102 5104 5109 5116 5123 5132 5143 5155 5166 5178 5188 5200 5213 5224 5236 5247 5261 5275 5288 5300 5313 5327 5342 5359 5376 5395 5416 5437 5459
5229 5220 5212 5204 5194 5185 5175 5164 5151 5139 5126 5114 5105 5099 5098 5100 5110 5118 5123 5127 5137 5147 5158 5169 5180 5191 5202 5214 5225 5237 5251 5263 5274 5285 5297 5309 5323 5339 5357 5378 5398 5421 5445
5227 5219 5211 5201 5192 5182 5172 5160 5148 5136 5123 5111 5103 5098 5097 5101 5110 5117 5121 5124 5132 5141 5152 5162 5173 5184 5193 5202 5213 5224 5236 5249 5261 5270 5281 5293 5307 5323 5342 5365 5383 5402 5425
5226 5218 5210 5201 5191 5181 5170 5159 5147 5134 5123 5112 5104 5099 5098 5102 5111 5118 5120 5122 5128 5137 5147 5157 5167 5176 5186 5193 5202 5212 5223 5235 5248 5260 5271 5282 5295 5310 5326 5345 5365 5388 5410
5227 5219 5210 5201 5191 5181 5171 5159 5148 5136 5125 5115 5107 5102 5100 5103 5110 5117 5118 5121 5125 5133 5141 5150 5160 5169 5179 5185 5193 5202 5212 5224 5237 5249 5262 5273 5286 5301 5317 5335 5354 5377 5400
5227 5219 5210 5201 5191 5182 5171 5160 5149 5138 5128 5119 5111 5106 5103 5104 5110 5115 5117 5118 5122 5129 5135 5143 5153 5162 5170 5177 5183 5193 5203 5213 5226 5239 5252 5265 5277 5291 5306 5320 5338 5360 5382
5227 5219 5211 5202 5193 5184 5173 5162 5152 5142 5132 5124 5117 5111 5107 5107 5109 5114 5117 5116 5118 5123 5129 5135 5144 5153 5161 5168 5176 5185 5195 5205 5217 5229 5242 5256 5269 5282 5296 5311 5327 5346 5366
5229 5221 5213 5205 5196 5188 5177 5168 5159 5150 5141 5133 5125 5120 5115 5111 5111 5114 5116 5117 5117 5118 5123 5128 5135 5143 5150 5159 5167 5176 5186 5196 5208 5221 5233 5245 5259 5272 5286 5302 5319 5337 5355
5231 5223 5216 5209 5200 5192 5184 5175 5167 5159 5151 5143 5134 5127 5122 5118 5115 5114 5115 5115 5116 5116 5118 5125 5130 5135 5141 5148 5157 5166 5176 5187 5198 5210 5221 5234 5247 5261 5277 5293 5311 5328 5345
5234 5227 5221 5213 5206 5198 5191 5183 5175 5168 5160 5152 5143 5136 5130 5125 5122 5119 5115 5114 5114 5113 5114 5118 5122 5128 5133 5140 5147 5156 5165 5176 5187 5198 5210 5224 5238 5253 5267 5282 5298 5314 5330
5237 5231 5224 5218 5210 5203 5196 5188 5183 5175 5169 5161 5153 5145 5140 5134 5131 5128 5122 5119 5115 5114 5113 5114 5117 5121 5126 5132 5139 5146 5156 5166 5176 5188 5200 5214 5228 5242 5255 5269 5283 5298 5312
5241 5235 5229 5223 5216 5208 5200 5194 5188 5182 5176 5169 5162 5156 5150 5144 5140 5135 5129 5124 5120 5117 5113 5111 5112 5115 5118 5123 5129 5137 5145 5155 5165 5177 5189 5202 5215 5228 5242 5255 5269 5282 5295
5243 5238 5233 5226 5219 5213 5206 5199 5194 5189 5183 5177 5171 5165 5159 5154 5149 5143 5137 5131 5126 5121 5114 5111 5110 5111 5114 5117 5122 5128 5136 5145 5155 5166 5177 5189 5203 5216 5229 5241 5254 5267 5279
5246 5241 5236 5229 5222 5215 5209 5203 5198 5194 5190 5185 5179 5173 5168 5163 5158 5152 5146 5139 5130 5124 5119 5114 5112 5111 5112 5114 5117 5122 5129 5137 5146 5156 5166 5177 5190 5203 5215 5227 5240 5252 5264
5249 5244 5239 5232 5225 5219 5214 5209 5204 5198 5194 5190 5186 5182 5177 5172 5167 5160 5154 5145 5138 5132 5126 5121 5118 5115 5114 5114 5115 5118 5123 5130 5137 5146 5156 5166 5178 5190 5202 5213 5225 5239 5249
5251 5247 5242 5235 5228 5223 5218 5213 5208 5203 5199 5195 5192 5188 5186 5181 5175 5168 5162 5155 5148 5142 5136 5130 5125 5121 5118 5115 5115 5116 5119 5124 5131 5138 5147 5156 5167 5178 5189 5200 5212 5223 5234
5253 5247 5243 5236 5230 5225 5222 5216 5211 5206 5203 5200 5196 5194 5192 5187 5181 5176 5170 5165 5159 5153 5147 5140 5134 5128 5123 5119 5117 5116 5117 5121 5125 5131 5139 5148 5157 5168 5178 5189 5199 5210 5221
5254 5248 5243 5237 5233 5228 5225 5218 5214 5210 5206 5203 5201 5199 5197 5192 5187 5183 5179 5174 5169 5163 5157 5151 5144 5137 5131 5125 5121 5119 5118 5119 5122 5126 5133 5140 5148 5158 5168 5177 5187 5198 5208
5255 5249 5244 5239 5234 5230 5225 5220 5216 5212 5209 5206 5203 5202 5199 5196 5193 5190 5186 5183 5178 5173 5167 5161 5154 5147 5140 5133 5128 5123 5120 5120 5121 5123 5128 5134 5141 5149 5158 5167 5176 5186 5196
5256 5250 5245 5240 5235 5231 5226 5221 5217 5214 5210 5208 5205 5203 5200 5198 5196 5194 5192 5189 5186 5182 5177 5171 5164 5157 5149 5141 5134 5129 5124 5122 5121 5122 5124 5128 5134 5141 5149 5157 5166 5175 5184
5257 5251 5245 5240 5235 5230 5226 5221 5218 5214 5211 5208 5206 5204 5201 5200 5199 5197 5196 5195 5193 5190 5186 5180 5174 5167 5158 5150 5141 5134 5128 5124 5122 5121 5122 5124 5128 5134 5141 5148 5156 5165 5174
5258 5252 5246 5240 5235 5230 5225 5221 5217 5214 5211 5208 5206 5204 5202 5201 5200 5200 5199 5198 5197 5196 5193 5188 5183 5175 5167 5158 5149 5140 5133 5128 5124 5122 5121 5122 5124 5128 5134 5141 5148 5156 5164